Terminal Aerodrome Forecast
Issued by NWS Charleston, WV

Current Version | Previous Version | Graphics & Text | Print | Product List | Glossary On
Versions: 1 2 3 4 5 6 7 8 9 10 11 12 13 14 15 16 17 18 19 20 21 22 23
000
FTUS41 KRLX 170800 AAA
TAFHTS
TAF AMD
KHTS 170855Z 1709/1806 17004KT P6SM BKN035
     FM171000 21004KT 4SM SHRA BR OVC015
     FM171100 VRB03KT 4SM -SHRA BR OVC015
     FM171300 25004KT P6SM BKN015
     FM171600 25004KT P6SM SCT025
     FM172300 32004KT P6SM SCT035
     FM180300 00000KT P6SM FEW140=

USA.gov is the U.S. government's official web portal to all federal, state and local government web resources and services.